Accueil
METAR-TAF:

METAR-TAF

Aéroports :

Aéroport d'Épinal-Mirecourt

Épinal, France

latitude: 48-19-31N, longitude: 6-04-00E, altitude: 330 m

Observation

Le bulletin a été fait il y a 44 minutes, à 08:00 UTC
Vent 3 kt de nord-est
Température 1°C
Humidité 93%
Pression 1012 hPa
Visibilité: 6000 m

METAR: LFSG 210800Z AUTO 05003KT 6000 NSC 01/M00 Q1012

Heure: 09:44 (08:44 UTC)


TAF: absent

Observations et prévisions météorologiques de plus de 4000 aéroports (messages METAR et TAF).

Les stations disponibles sont représentées par des disques jaunes et rouges sur la carte.

Passer la souris dessus pour voir le nom de la station.

Cliquer dessus pour voir les observations et prévisions météorologiques.

Pour changer de carte: cliquez sur les boutons verts avec une croix noire pour zoomer, sur le bouton vert avec un tiret pour effectuer un zoom arrière, ou sur les flèches vertes pour les cartes adjacentes.


METAR-TAF: